Hourly Weather Roundup
Issued by NWS Central Illinois

Home | Current Version | Previous Version | Text Only | Print | Product List | Glossary On
Versions: 1 2 3 4 5 6 7 8 9 10 11 12 13 14 15 16 17 18 19 20 21 22 23 24 25 26 27 28 29 30 31 32 33 34 35 36 37 38 39 40 41 42 43 44 45 46 47 48 49 50
333
NZUS43 KILX 281810
HWRILX

Area Weather Roundup
National Weather Service Lincoln IL
100 PM CDT SUN MAY 28 2017

NOTE:  "FAIR" indicates few or no clouds below 12,000 feet, with
       no sigificant weather and/or obstructions to visibility.


CITY           SKY/WX    TMP DP  RH WIND       PRES   REMARKS
Bloomington    PTSUNNY   75  61  61 NW13      29.80R
6HR MIN TEMP:  62; 6HR MAX TEMP:  75;

Champaign      CLOUDY    77  62  59 W18       29.76F
6HR MIN TEMP:  64; 6HR MAX TEMP:  78; 6HR PCP: TRACE;

Danville       CLOUDY    75  66  75 SW8       29.72F
6HR MIN TEMP:  62; 6HR MAX TEMP:  75;

Decatur        PTSUNNY   76  64  66 NW10      29.79S
6HR MIN TEMP:  63; 6HR MAX TEMP:  77;

Effingham      CLOUDY    74  66  76 W15G22    29.81F
6HR MIN TEMP:  64; 6HR MAX TEMP:  74;

Flora          CLOUDY    75  64  70 W17G23    29.81S
6HR MIN TEMP:  65; 6HR MAX TEMP:  78;

Galesburg      SUNNY     74  54  49 W12G21    29.81S
6HR MIN TEMP:  60; 6HR MAX TEMP:  74;

Jacksonville   PTSUNNY   75  58  56 NW15      29.82S
6HR MIN TEMP:  62; 6HR MAX TEMP:  76;

Lacon          PTSUNNY   72  58  60 NW10G17   29.79R
6HR MIN TEMP:  60; 6HR MAX TEMP:  73;

Lawrenceville  CLOUDY    76  64  66 W15       29.79F
6HR MIN TEMP:  65; 6HR MAX TEMP:  75;

Litchfield     PTSUNNY   71  64  79 W8        29.83F
6HR MIN TEMP:  63; 6HR MAX TEMP:  71;

$$


CITY           SKY/WX    TMP DP  RH WIND       PRES   REMARKS
Lincoln        PTSUNNY   78  62  58 NW8       29.79S
6HR MIN TEMP:  65; 6HR MAX TEMP:  78;

Macomb         MOSUNNY   74  54  48 NW14      29.85S
6HR MIN TEMP:  61; 6HR MAX TEMP:  75;

Mattoon        PTSUNNY   74  66  76 W13G22    29.78F
6HR MIN TEMP:  63; 6HR MAX TEMP:  74;

Mt Carmel AP   CLOUDY    75  62  64 W14G20    29.79F
6HR MIN TEMP:  65; 6HR MAX TEMP:  75;

Olney-Noble AP CLOUDY    75  67  75 W15G22    29.80S
Paris AP       CLOUDY    74  65  74 W13       29.78F
6HR MIN TEMP:  64; 6HR MAX TEMP:  74;

Peoria         CLOUDY    75  55  49 VRB6      29.81R
6HR MIN TEMP:  64; 6HR MAX TEMP:  75;

Pontiac        PTSUNNY   75  66  73 W14       29.77S
6HR MIN TEMP:  62; 6HR MAX TEMP:  75;

Rantoul        PTSUNNY   78  66  65 NW12G18   29.76R HX  80
6HR MIN TEMP:  65; 6HR MAX TEMP:  80;

Robinson       CLOUDY    74  63  70 W14       29.79F
6HR MIN TEMP:  63; 6HR MAX TEMP:  74;

Springfield    MOSUNNY   78  61  55 NW14      29.81S HX  80
6HR MIN TEMP:  63; 6HR MAX TEMP:  78;

Taylorville    CLOUDY    73  63  71 NW12      29.81F
6HR MIN TEMP:  63; 6HR MAX TEMP:  73;

$$

...REGIONAL REPORTS...


CITY           SKY/WX    TMP DP  RH WIND       PRES   REMARKS
Chicago O`Hare PTSUNNY   74  58  57 NW5       29.73S
Kankakee       PTSUNNY   78  61  54 W5        29.75S HX  80
Moline         SUNNY     75  52  44 W9G16     29.79F
Mount Sterling MOSUNNY   73  56  55 NW13      29.84S
Mount Vernon     N/A     75  65  70 W9G17     29.82S
Pittsfield     MOSUNNY   75  58  55 NW10G18   29.86R
Quincy         MOSUNNY   75  56  51 W10       29.85F
Rockford       MOSUNNY   70  56  61 NW8       29.78F
$$


CITY           SKY/WX    TMP DP  RH WIND       PRES   REMARKS
Burlington     SUNNY     75  57  53 NW13G20   29.82F
Cedar Rapids   MOSUNNY   73  55  53 W13       29.80S
Des Moines     MOSUNNY   77  52  41 W7        29.85F
Kirksville     SUNNY     77  53  43 W10G18    29.89S
Ottumwa        SUNNY     76  55  48 W12       29.84F
St Louis       CLOUDY    75  64  68 W9        29.85F
$$


CITY           SKY/WX    TMP DP  RH WIND       PRES   REMARKS
Terre Haute    CLOUDY    71  62  73 W12       29.78S
Evansville     CLOUDY    73  62  68 W13       29.83S
Indianapolis   CLOUDY    72  61  68 SW18      29.77R
Lafayette      PTSUNNY   71  69  93 SW7       29.73S
Madison        MOSUNNY   68  53  58 S7        29.74F
Milwaukee      CLOUDY    66  61  84 NW5       29.74F
$$






USA.gov is the U.S. government's official web portal to all federal, state and local government web resources and services.